GAOFEN-1 02

Last updated on Mon Jun 22 2026 00:02:52 GMT+0000 (Coordinated Universal Time)

1 43259U 18031A 26172.50026785 .00000711 00000+0 10961-3 0 9995 2 43259 98.0520 235.0160 0003499 23.7295 336.4075 14.76462409443337
UTC large
Height (km)
Speed (km/s)
/
Latitude / Longitude
Inclination (degrees)
Orbital Period (minutes)
Azimuth
Elevation
Range (km)
Doppler Factor

Next 0 passes for location: London (51.5072 / 0.1276)

No passes found over London.
GAOFEN-1 02